星链-30755 (STARLINK-30755 )

导读

STARLINK-30755是美国太空探索技术公司(SpaceX)于2023年10月30日发射的星链(Starlink)项目卫星,属于星链低轨互联网星座的一部分。该卫星运行在近地轨道,轨道高度约355-357公里,倾角43度,主要为全球提供高速低延迟卫星互联网服务,尤其覆盖偏远区域,同时支持星间激光通信组网,助力天地一体化网络构建。

基本信息
目录编号:
58186
目录名称:
STARLINK-30755
国际标识:
2023-167M
轨道中心:
EARTH
卫星名称:
星链-30755
卫星全名:
星链-30755 (STARLINK-30755 )
卫星状态:
在轨 (已飞行962 天)
发射日期:
2023-10-30 UTC
国别 :
美国 (US)
星等 :
--
轨道信息
数据来源 国际轨道数据 AOE轨道数据
星历时间 2026-06-16T23:44:35+0800
1天前
查看轨道信息
2026-06-15T02:00:00+0800
3天前
查看轨道信息
半长轴 6861.191km 6861.189km
偏心率 0.0002221 0.0002239
轨道倾角 43.000° 43.001°
近地点辐角 274.224° 277.817°
升交点赤经 304.239° 315.007°
平近点角 85.836° 28.535°
近地点 481.53km 481.515km
远地点 484.578km 484.589km
周期 94.267分钟 94.267分钟
每日圈数 15.275785 15.275793
详细信息
固有亮度:
5
最大亮度:
0.3
卫星平台:
Starlink v2.0 mini
覆盖范围:
全球
运营商:
太空探索技术公司
运营商所在国:
美国
制造商(研发单位):
太空探索技术公司
制造商所在国:
美国
使用方式:
暂无
卫星简介
星链(Starlink)计划是由太空探索技术公司(SpaceX)提出的一个巨型低轨卫星互联网星座项目,计划在2019年至2024年间在太空搭建由约1.2万颗卫星组成的“星链”网络,其中1584颗将部署在地球上空550千米处的近地轨道,并从2020年开始工作。该卫星仍在工作。
2D轨道图
3D轨道图
轨道高度分析图
轨道倾角分析图
轨道综合分析图
查看轨道综合分析图